sat.trackr.live / text

‹ back to catalog

STARLINK-36378

NORAD 68025 · 2026-040L

PAYLOAD ACTIVE UNKNOWN

§ Identity

Operator
Country
US
Launch date
2026-03-01
Launch site
AFWTR
Launch vehicle
Mass (kg)
RCS (m²)

Purposes: comms

External: N2YO · Heavens-Above · Gunter

§ Orbital elements

Epoch: 2026-05-24T20:13:24.636000Z

Period
93.91 min
Inclination
97.2842°
Eccentricity
0.0001685
Mean motion
15.33441017 rev/d
Perigee alt
464.4 km
Apogee alt
466.7 km
Semi-major
6,843.7 km
B*
7.0421e-4
RAAN
93.8625°
Arg perigee
91.6452°
Mean anomaly
268.4984°
Rev number
1,313

§ Raw data

STARLINK-363781 68025U 26040L   26144.84264625  .00022725  00000+0  70421-3 0  99912 68025  97.2842  93.8625 0001685  91.6452 268.4984 15.33441017 13133

JSON: /api/v1/satellites/68025 · /tle

For live sub-satellite position, see the globe view (requires WebGL).

§ Visibility from observer

Set your observer location to see the next 7 days of passes ≥ 10°. The values pass through the URL so the page stays shareable.

No JS? Fill the form by hand. The geolocation button needs JavaScript.